sat.trackr.live / text

‹ back to catalog

STARLINK-31504

NORAD 59303 · 2024-056H

PAYLOAD ACTIVE UNKNOWN

§ Identity

Operator
Country
US
Launch date
2024-03-24
Launch site
AFETR
Launch vehicle
Mass (kg)
RCS (m²)

Purposes: comms

External: N2YO · Heavens-Above · Gunter

§ Orbital elements

Epoch: 2026-09-20T05:14:24.580320Z

Period
94.27 min
Inclination
43.0008°
Eccentricity
0.0000984
Mean motion
15.27576046 rev/d
Perigee alt
482.4 km
Apogee alt
483.7 km
Semi-major
6,861.2 km
B*
2.9093e-5
RAAN
212.2254°
Arg perigee
275.5525°
Mean anomaly
84.5214°
Rev number
14,090

§ Raw data

STARLINK-315041 59303U 24056H   26263.21834005  .00000539  00000+0  29093-4 0  99922 59303  43.0008 212.2254 0000984 275.5525  84.5214 15.27576046140908

JSON: /api/v1/satellites/59303 · /tle

For live sub-satellite position, see the globe view (requires WebGL).

§ Visibility from observer

Set your observer location to see the next 7 days of passes ≥ 10°. The values pass through the URL so the page stays shareable.

No JS? Fill the form by hand. The geolocation button needs JavaScript.